Tracking 29967 objects as of 5-Dec-2024
HD Live streaming from Space Station
objects crossing your sky now

STARLINK-30355

Track STARLINK-30355 now!
10-day predictions
STARLINK-30355 is classified as:


NORAD ID: 57777
Int'l Code: 2023-134G
Perigee: 565.8 km
Apogee: 566.8 km
Inclination: 43.0 °
Period: 95.8 minutes
Semi major axis: 6937 km
RCS: Unknown
Launch date: September 4, 2023
Source: United States (US)
Launch site: AIR FORCE EASTERN TEST RANGE (AFETR)
Your satellite tracking list
Your tracking list is empty




NASA's NSSDC Master Catalog

Two Line Element Set (TLE):
1 57777U 23134G   24339.88754220 -.00001455  00000-0 -92758-4 0  9995
2 57777  43.0006 176.0403 0000668 270.2164  89.8602 15.02506607 70294
Source of the keplerian elements: AFSPC